This is the latest recevied weather packets stored in our database for station/object K9MWD. If no packets are shown the sender has not sent any weather packets the latest 10 day(s).
| Time | Temp. | Humidity | Pressure | Rain* | Wind** | Luminosity | Snow |
|---|---|---|---|---|---|---|---|
| 1777735675 | 19.44° C | 56% | 1022.5 hPa | 0 mm | - | 659 W/m² | - |
| 1777735373 | 18.89° C | 61% | 1022.2 hPa | 0 mm | - | 644 W/m² | - |
| 1777735070 | 18.89° C | 62% | 1022.3 hPa | 0 mm | - | 627 W/m² | - |
| 1777734767 | 18.33° C | 64% | 1022.4 hPa | 0 mm | - | 609 W/m² | - |
| 1777734465 | 18.33° C | 64% | 1022.2 hPa | 0 mm | - | 596 W/m² | - |
| 1777734162 | 18.33° C | 62% | 1022.3 hPa | 0 mm | - | 580 W/m² | - |
| 1777733858 | 18.33° C | 65% | 1022.3 hPa | 0 mm | - | 563 W/m² | - |
| 1777733554 | 18.33° C | 65% | 1022.2 hPa | 0 mm | - | 548 W/m² | - |
| 1777733251 | 17.78° C | 66% | 1022 hPa | 0 mm | - | 531 W/m² | - |
| 1777732948 | 17.78° C | 68% | 1022 hPa | 0 mm | - | 513 W/m² | - |
| 1777732644 | 17.22° C | 69% | 1021.9 hPa | 0 mm | - | 498 W/m² | - |
| 1777732341 | 17.22° C | 70% | 1022 hPa | 0 mm | - | 478 W/m² | - |
| 1777732039 | 16.67° C | 71% | 1022 hPa | 0 mm | - | 460 W/m² | - |
| 1777731735 | 16.67° C | 73% | 1021.9 hPa | 0 mm | - | 442 W/m² | - |
| 1777731433 | 16.11° C | 73% | 1021.9 hPa | 0 mm | - | 424 W/m² | - |
| 1777731131 | 16.11° C | 73% | 1021.7 hPa | 0 mm | - | 406 W/m² | - |
| 1777730526 | 15.56° C | 75% | 1021.7 hPa | 0 mm | - | 365 W/m² | - |
| 1777730221 | 15.56° C | 75% | 1022 hPa | 0 mm | - | 346 W/m² | - |
| 1777729919 | 15.56° C | 76% | 1021.8 hPa | 0 mm | - | 327 W/m² | - |
| 1777729614 | 15° C | 76% | 1021.6 hPa | 0 mm | - | 307 W/m² | - |
| 1777729312 | 15° C | 76% | 1021.8 hPa | 0 mm | - | 287 W/m² | - |
| 1777729008 | 14.44° C | 77% | 1021.6 hPa | 0 mm | - | 265 W/m² | - |
| 1777728705 | 14.44° C | 76% | 1021.6 hPa | 0 mm | - | 246 W/m² | - |
| 1777728401 | 14.44° C | 76% | 1021.5 hPa | 0 mm | - | 227 W/m² | - |
| 1777728099 | 13.89° C | 76% | 1021.5 hPa | 0 mm | - | 211 W/m² | - |
* Rain latest hour (hover to see other rain measurements)
** Current wind speed in m/s (hover to see current wind gust speed)